STARLINK-33593 (62780 NORAD) Tracking and Keplerian Element Data

This shows tracking and keplerian element data for the satellite.

Feedback or suggestion? Click here.




ElementValue
Catalog62780
NameSTARLINK-33593
Epoch Orbit337
Epoch Day35.16668981
Epoch Year2025
RAAN19.0323
Inclination53.1597
Eccentricity0.0001165
Argument of Perigee82.1671
Mean Anonmoly109.6954
Mean Motion15.78131983
Decay Rate-0.01192154
L11 62780U 25015Y 25035.16668981 -.01192154 00000+0 -76980-2 0 9992
L22 62780 53.1597 19.0323 0001165 82.1671 109.6954 15.78131983 3374



Live tracking and technical data element details for STARLINK-33593 (NORAD 62780). STARLINK-33593 can be tracked NOW for your location showing map with azimuth and elevation plus other details from your city location.







IsCatalogInMostPopularTable: catalog: 62780, numindb: 199
Update: records affected: 1



GetName: 62780 STARLINK-33593

Hit Count: updated at: Mon, 17 Nov 2025 07:14:59 GMT